User: anonymous   Login
Location: Casteau
(50.5142°N, 4.0161°E)
Time: 13:18:23
(UTC+00:00)
Language:

Explorer 7 - Orbit

View from above orbital plane
View from above orbital plane
View from above satellite
View from above satellite

Ground track
Ground track

The orbit data is extracted from the following two-line orbital elements,

1    22U 59009A   21216.14986989  .00000056  00000-0  27416-4 0  9998
2    22  50.2849 324.9920 0138277  36.0690 324.9491 14.95639184287082
Epoch (UTC): 04 August 2021 03:35:48
Eccentricity: 0.0138277
inclination: 50.2849°
perigee height: 484 km
apogee height: 676 km
right ascension of ascending node: 324.9920°
argument of perigee: 36.0690°
revolutions per day: 14.95639184
mean anomaly at epoch: 324.9491°
orbit number at epoch: 28708

The dashed part of the orbit path shows where the satellite is in the earth's shadow,  

DLR